FFT2817 KDEN-KSAN

Flight info

Callsign FFT2817
Flight time 2h 4m
Altitude 38000
Route BAYLR6 TEHRU PLNDL Q86 TTRUE LUCKI1
Aircraft A320/M-SDE3FGHIRWY/LB1

Departure

Time 2026-04-26 14:17
Airport Denver International Airport (KDEN)

Arrival

Time 2026-04-26 16:21
Airport San Diego International Airport (KSAN)
Time Latitude Longitude Altitude Speed Heading
2026-04-26 13:50 39.85328 -104.67061 5365 ft 0 kts 360°
2026-04-26 14:07 39.85326 -104.67061 5366 ft 2 kts 359°
2026-04-26 14:08 39.85300 -104.67058 5364 ft 4 kts 341°
2026-04-26 14:08 39.85279 -104.67041 5363 ft 4 kts 299°
2026-04-26 14:08 39.85274 -104.67026 5366 ft 0 kts 271°
2026-04-26 14:10 39.85274 -104.67027 5366 ft 1 kts 271°
2026-04-26 14:10 39.85275 -104.67078 5365 ft 11 kts 270°
2026-04-26 14:10 39.85275 -104.67169 5365 ft 9 kts 270°
2026-04-26 14:10 39.85276 -104.67255 5366 ft 12 kts 270°
2026-04-26 14:11 39.85278 -104.67542 5366 ft 15 kts 271°
2026-04-26 14:11 39.85279 -104.67665 5366 ft 12 kts 270°
2026-04-26 14:11 39.85280 -104.67768 5366 ft 10 kts 270°
2026-04-26 14:12 39.85280 -104.67853 5366 ft 8 kts 270°
2026-04-26 14:12 39.85281 -104.67949 5366 ft 13 kts 270°
2026-04-26 14:12 39.85282 -104.68091 5366 ft 17 kts 270°
2026-04-26 14:12 39.85308 -104.68239 5365 ft 17 kts 273°
2026-04-26 14:13 39.85209 -104.68437 5364 ft 13 kts 243°
2026-04-26 14:13 39.85203 -104.68548 5366 ft 11 kts 269°
2026-04-26 14:13 39.85201 -104.68641 5366 ft 9 kts 269°
2026-04-26 14:14 39.85201 -104.68716 5366 ft 8 kts 270°
2026-04-26 14:14 39.85200 -104.68827 5366 ft 15 kts 269°
2026-04-26 14:14 39.85198 -104.68955 5366 ft 15 kts 269°
2026-04-26 14:14 39.85195 -104.69114 5365 ft 20 kts 269°
2026-04-26 14:15 39.85199 -104.69315 5366 ft 23 kts 272°
2026-04-26 14:15 39.85201 -104.69529 5364 ft 24 kts 271°
2026-04-26 14:15 39.85247 -104.69654 5363 ft 15 kts 348°
2026-04-26 14:15 39.85297 -104.69657 5365 ft 0 kts 360°
2026-04-26 14:16 39.85304 -104.69657 5365 ft 9 kts 359°
2026-04-26 14:16 39.85624 -104.69652 5368 ft 80 kts
2026-04-26 14:16 39.86388 -104.69642 5364 ft 137 kts
2026-04-26 14:16 39.87486 -104.69641 5438 ft 174 kts
2026-04-26 14:17 39.88698 -104.69665 6074 ft 179 kts 357°
2026-04-26 14:17 39.89889 -104.70168 6697 ft 186 kts 320°
2026-04-26 14:17 39.90539 -104.71549 7218 ft 180 kts 271°
2026-04-26 14:17 39.90260 -104.73060 7728 ft 173 kts 230°
2026-04-26 14:18 39.89363 -104.74081 8243 ft 175 kts 216°
2026-04-26 14:18 39.88340 -104.75063 8531 ft 193 kts 216°
2026-04-26 14:18 39.87190 -104.76168 8722 ft 218 kts 218°
2026-04-26 14:18 39.86016 -104.77597 9055 ft 243 kts 226°
2026-04-26 14:19 39.84835 -104.79321 9478 ft 265 kts 228°
2026-04-26 14:19 39.83623 -104.81186 9914 ft 274 kts 229°
2026-04-26 14:19 39.82396 -104.83084 9985 ft 279 kts 229°
2026-04-26 14:19 39.81059 -104.85127 9978 ft 313 kts 229°
2026-04-26 14:20 39.79587 -104.87350 9980 ft 332 kts 228°
2026-04-26 14:20 39.78083 -104.89644 9972 ft 338 kts 232°
2026-04-26 14:20 39.76980 -104.92378 10302 ft 347 kts 247°
2026-04-26 14:20 39.76186 -104.95324 11001 ft 353 kts 252°
2026-04-26 14:21 39.75516 -104.98443 11804 ft 355 kts 255°
2026-04-26 14:21 39.74913 -105.01563 12639 ft 357 kts 255°
2026-04-26 14:21 39.74149 -105.04591 13418 ft 358 kts 249°
2026-04-26 14:21 39.73245 -105.07614 14144 ft 360 kts 248°
2026-04-26 14:22 39.72287 -105.10631 14810 ft 362 kts 247°
2026-04-26 14:22 39.71293 -105.13663 15474 ft 364 kts 246°
2026-04-26 14:22 39.70283 -105.16692 16114 ft 366 kts 246°
2026-04-26 14:22 39.69267 -105.19734 16733 ft 368 kts 246°
2026-04-26 14:23 39.68248 -105.22799 17306 ft 371 kts 246°
2026-04-26 14:23 39.67228 -105.25884 17918 ft 373 kts 246°
2026-04-26 14:23 39.66203 -105.28994 18480 ft 376 kts 246°
2026-04-26 14:23 39.65174 -105.32118 18994 ft 378 kts 246°
2026-04-26 14:24 39.64149 -105.35226 19498 ft 380 kts 246°
2026-04-26 14:24 39.63100 -105.38393 19947 ft 383 kts 246°
2026-04-26 14:24 39.62046 -105.41578 20430 ft 385 kts 246°
2026-04-26 14:24 39.60984 -105.44789 20917 ft 388 kts 246°
2026-04-26 14:25 39.59920 -105.48015 21398 ft 391 kts 246°
2026-04-26 14:25 39.58849 -105.51263 21831 ft 393 kts 245°
2026-04-26 14:25 39.57763 -105.54537 22281 ft 396 kts 245°
2026-04-26 14:25 39.56668 -105.57827 22721 ft 399 kts 245°
2026-04-26 14:26 39.55561 -105.61141 23121 ft 402 kts 245°
2026-04-26 14:26 39.54495 -105.64498 23530 ft 404 kts 247°
2026-04-26 14:26 39.53514 -105.67920 23948 ft 406 kts 249°
2026-04-26 14:26 39.52584 -105.71377 24352 ft 407 kts 249°
2026-04-26 14:27 39.51670 -105.74854 24732 ft 409 kts 249°
2026-04-26 14:27 39.50744 -105.78355 25085 ft 411 kts 249°
2026-04-26 14:27 39.49801 -105.81858 25427 ft 413 kts 249°
2026-04-26 14:27 39.48836 -105.85364 25767 ft 414 kts 248°
2026-04-26 14:28 39.47853 -105.88881 26101 ft 416 kts 248°
2026-04-26 14:28 39.46861 -105.92405 26446 ft 418 kts 248°
2026-04-26 14:28 39.45863 -105.95941 26762 ft 419 kts 248°
2026-04-26 14:28 39.44863 -105.99492 27059 ft 421 kts 248°
2026-04-26 14:29 39.43872 -106.03029 27476 ft 421 kts 248°
2026-04-26 14:29 39.42872 -106.06609 27818 ft 422 kts 248°
2026-04-26 14:29 39.41874 -106.10175 28189 ft 421 kts 248°
2026-04-26 14:29 39.40883 -106.13703 28593 ft 420 kts 248°
2026-04-26 14:30 39.39878 -106.17274 29042 ft 419 kts 248°
2026-04-26 14:30 39.38891 -106.20769 29489 ft 417 kts 248°
2026-04-26 14:30 39.37889 -106.24309 29914 ft 415 kts 248°
2026-04-26 14:30 39.36902 -106.27801 30479 ft 414 kts 248°
2026-04-26 14:31 39.35918 -106.31291 30901 ft 412 kts 248°
2026-04-26 14:31 39.34943 -106.34739 31314 ft 410 kts 248°
2026-04-26 14:31 39.33960 -106.38196 31807 ft 406 kts 248°
2026-04-26 14:31 39.32995 -106.41579 32263 ft 402 kts 248°
2026-04-26 14:32 39.32032 -106.44949 32651 ft 400 kts 248°
2026-04-26 14:32 39.31060 -106.48346 33043 ft 398 kts 248°
2026-04-26 14:32 39.30115 -106.51655 33411 ft 396 kts 248°
2026-04-26 14:32 39.29160 -106.54990 33809 ft 394 kts 248°
2026-04-26 14:33 39.28206 -106.58316 34134 ft 393 kts 248°
2026-04-26 14:33 39.27257 -106.61621 34372 ft 393 kts 248°
2026-04-26 14:33 39.26313 -106.64917 34677 ft 392 kts 248°
2026-04-26 14:33 39.25376 -106.68191 34957 ft 392 kts 248°
2026-04-26 14:34 39.24321 -106.71428 35269 ft 391 kts 241°
2026-04-26 14:34 39.22866 -106.74392 35524 ft 391 kts 233°
2026-04-26 14:34 39.21177 -106.77163 35760 ft 392 kts 232°
2026-04-26 14:34 39.19484 -106.79930 35981 ft 393 kts 233°
2026-04-26 14:35 39.17786 -106.82700 36204 ft 394 kts 233°
2026-04-26 14:35 39.16087 -106.85473 36415 ft 395 kts 233°
2026-04-26 14:35 39.14380 -106.88256 36417 ft 396 kts 233°
2026-04-26 14:35 39.12671 -106.91045 36635 ft 396 kts 233°
2026-04-26 14:36 39.10964 -106.93833 36807 ft 397 kts 233°
2026-04-26 14:36 39.09254 -106.96624 36994 ft 398 kts 233°
2026-04-26 14:36 39.07541 -106.99416 37164 ft 398 kts 233°
2026-04-26 14:36 39.05823 -107.02213 37361 ft 399 kts 233°
2026-04-26 14:37 39.04101 -107.05010 37620 ft 399 kts 233°
2026-04-26 14:37 39.00666 -107.10582 37681 ft 400 kts 233°
2026-04-26 14:38 38.97211 -107.16180 37679 ft 399 kts 233°
2026-04-26 14:38 38.93780 -107.21740 37680 ft 396 kts 233°
2026-04-26 14:39 38.90345 -107.27286 37690 ft 396 kts 233°
2026-04-26 14:39 38.86913 -107.32828 37697 ft 396 kts 233°
2026-04-26 14:40 38.83496 -107.38335 37697 ft 396 kts 233°
2026-04-26 14:40 38.80060 -107.43853 37709 ft 396 kts 233°
2026-04-26 14:41 38.76602 -107.49398 37714 ft 396 kts 232°
2026-04-26 14:41 38.73153 -107.54911 37713 ft 397 kts 232°
2026-04-26 14:42 38.69706 -107.60418 37713 ft 396 kts 232°
2026-04-26 14:42 38.66250 -107.65936 37716 ft 397 kts 232°
2026-04-26 14:43 38.62813 -107.71408 37720 ft 395 kts 232°
2026-04-26 14:43 38.59379 -107.76872 37738 ft 395 kts 232°
2026-04-26 14:44 38.55947 -107.82319 37892 ft 394 kts 232°
2026-04-26 14:44 38.52506 -107.87778 37891 ft 394 kts 232°
2026-04-26 14:45 38.49063 -107.93226 37887 ft 393 kts 232°
2026-04-26 14:45 38.46206 -107.97736 37886 ft 393 kts 232°
2026-04-26 14:46 38.42189 -108.04076 37859 ft 393 kts 232°
2026-04-26 14:46 38.39307 -108.08615 37830 ft 393 kts 232°
2026-04-26 14:47 38.35884 -108.13996 37789 ft 393 kts 232°
2026-04-26 14:47 38.32431 -108.19413 37784 ft 392 kts 232°
2026-04-26 14:48 38.29011 -108.24766 37763 ft 392 kts 232°
2026-04-26 14:48 38.25579 -108.30136 37760 ft 391 kts 232°
2026-04-26 14:49 38.22122 -108.35533 37763 ft 392 kts 232°
2026-04-26 14:49 38.18681 -108.40890 37765 ft 391 kts 232°
2026-04-26 14:50 38.15244 -108.46241 37781 ft 391 kts 232°
2026-04-26 14:50 38.11804 -108.51587 37767 ft 391 kts 232°
2026-04-26 14:51 38.08363 -108.56923 37761 ft 391 kts 231°
2026-04-26 14:51 38.04907 -108.62280 37755 ft 392 kts 232°
2026-04-26 14:52 38.01452 -108.67627 37766 ft 392 kts 231°
2026-04-26 14:52 37.97995 -108.72961 37776 ft 391 kts 231°
2026-04-26 14:53 37.94536 -108.78281 37796 ft 391 kts 231°
2026-04-26 14:53 37.91088 -108.83596 37785 ft 391 kts 231°
2026-04-26 14:54 37.87619 -108.88925 37783 ft 392 kts 231°
2026-04-26 14:54 37.84145 -108.94251 37788 ft 392 kts 231°
2026-04-26 14:55 37.80665 -108.99585 37784 ft 393 kts 231°
2026-04-26 14:55 37.77202 -109.04890 37746 ft 392 kts 232°
2026-04-26 14:56 37.73710 -109.10221 37773 ft 392 kts 232°
2026-04-26 14:56 37.70219 -109.15532 37808 ft 393 kts 232°
2026-04-26 14:57 37.66728 -109.20836 37825 ft 393 kts 231°
2026-04-26 14:57 37.63231 -109.26141 37849 ft 394 kts 231°
2026-04-26 14:58 37.59735 -109.31433 37868 ft 394 kts 231°
2026-04-26 14:58 37.56242 -109.36745 37892 ft 394 kts 232°
2026-04-26 14:59 37.52727 -109.42070 37894 ft 394 kts 231°
2026-04-26 14:59 37.49205 -109.47365 37908 ft 394 kts 231°
2026-04-26 15:00 37.45675 -109.52670 37856 ft 394 kts 232°
2026-04-26 15:00 37.42168 -109.57956 37849 ft 394 kts 232°
2026-04-26 15:01 37.38656 -109.63239 37835 ft 394 kts 232°
2026-04-26 15:01 37.35150 -109.68500 37810 ft 394 kts 232°
2026-04-26 15:02 37.31627 -109.73771 37768 ft 394 kts 232°
2026-04-26 15:02 37.28093 -109.79048 37766 ft 394 kts 232°
2026-04-26 15:03 37.24588 -109.84276 37771 ft 394 kts 232°
2026-04-26 15:03 37.21041 -109.89564 37762 ft 394 kts 231°
2026-04-26 15:04 37.17514 -109.94810 37749 ft 394 kts 232°
2026-04-26 15:04 37.13982 -110.00052 37741 ft 393 kts 232°
2026-04-26 15:05 37.10471 -110.05264 37749 ft 393 kts 232°
2026-04-26 15:05 37.06942 -110.10479 37740 ft 392 kts 232°
2026-04-26 15:06 37.03409 -110.15696 37745 ft 392 kts 232°
2026-04-26 15:06 36.99879 -110.20917 37737 ft 393 kts 232°
2026-04-26 15:07 36.94571 -110.28739 37740 ft 393 kts 231°
2026-04-26 15:07 36.91031 -110.33934 37741 ft 393 kts 231°
2026-04-26 15:08 36.87497 -110.39118 37735 ft 393 kts 231°
2026-04-26 15:08 36.83935 -110.44333 37720 ft 393 kts 231°
2026-04-26 15:09 36.80384 -110.49526 37764 ft 392 kts 232°
2026-04-26 15:09 36.76861 -110.54678 37757 ft 392 kts 231°
2026-04-26 15:10 36.73906 -110.58992 37755 ft 392 kts 231°
2026-04-26 15:10 36.69761 -110.65026 37754 ft 392 kts 231°
2026-04-26 15:11 36.66224 -110.70169 37755 ft 391 kts 231°
2026-04-26 15:11 36.62696 -110.75294 37752 ft 391 kts 231°
2026-04-26 15:12 36.59157 -110.80415 37753 ft 391 kts 231°
2026-04-26 15:12 36.55608 -110.85546 37758 ft 391 kts 231°
2026-04-26 15:13 36.52052 -110.90681 37753 ft 392 kts 231°
2026-04-26 15:13 36.48494 -110.95822 37760 ft 391 kts 231°
2026-04-26 15:14 36.44952 -111.00932 37752 ft 392 kts 231°
2026-04-26 15:14 36.41403 -111.06033 37755 ft 392 kts 231°
2026-04-26 15:15 36.37818 -111.11182 37749 ft 391 kts 231°
2026-04-26 15:15 36.34278 -111.16264 37765 ft 391 kts 231°
2026-04-26 15:16 36.30706 -111.21378 37754 ft 392 kts 231°
2026-04-26 15:16 36.27126 -111.26488 37757 ft 392 kts 231°
2026-04-26 15:17 36.24164 -111.30708 37742 ft 392 kts 231°
2026-04-26 15:17 36.19995 -111.36649 37732 ft 391 kts 231°
2026-04-26 15:18 36.16443 -111.41708 37737 ft 390 kts 231°
2026-04-26 15:18 36.12862 -111.46804 37741 ft 390 kts 231°
2026-04-26 15:19 36.09319 -111.51831 37742 ft 390 kts 231°
2026-04-26 15:19 36.05761 -111.56864 37743 ft 389 kts 231°
2026-04-26 15:20 36.02184 -111.61925 37745 ft 389 kts 231°
2026-04-26 15:20 35.98628 -111.66960 37743 ft 389 kts 231°
2026-04-26 15:21 35.95066 -111.71981 37749 ft 389 kts 231°
2026-04-26 15:21 35.91488 -111.77013 37745 ft 389 kts 231°
2026-04-26 15:22 35.87932 -111.82003 37786 ft 389 kts 231°
2026-04-26 15:22 35.84372 -111.87030 37735 ft 388 kts 234°
2026-04-26 15:23 35.81605 -111.92688 37743 ft 387 kts 242°
2026-04-26 15:23 35.78999 -111.98482 37757 ft 387 kts 242°
2026-04-26 15:24 35.76366 -112.04301 37758 ft 387 kts 242°
2026-04-26 15:24 35.73739 -112.10078 37766 ft 387 kts 241°
2026-04-26 15:25 35.71538 -112.14863 37806 ft 387 kts 241°
2026-04-26 15:25 35.68383 -112.21549 37795 ft 387 kts 241°
2026-04-26 15:26 35.65679 -112.27280 37790 ft 386 kts 241°
2026-04-26 15:26 35.62990 -112.32981 37792 ft 386 kts 241°
2026-04-26 15:27 35.60298 -112.38696 37797 ft 386 kts 241°
2026-04-26 15:27 35.57624 -112.44419 37794 ft 386 kts 241°
2026-04-26 15:28 35.54956 -112.50162 37791 ft 387 kts 242°
2026-04-26 15:28 35.52305 -112.55857 37758 ft 386 kts 242°
2026-04-26 15:29 35.49625 -112.61598 37779 ft 385 kts 242°
2026-04-26 15:30 35.44287 -112.72957 37785 ft 385 kts 241°
2026-04-26 15:30 35.41612 -112.78641 37796 ft 385 kts 242°
2026-04-26 15:31 35.37613 -112.87138 37785 ft 385 kts 241°
2026-04-26 15:32 35.34472 -112.93785 37785 ft 385 kts 241°
2026-04-26 15:32 35.31331 -113.00419 37781 ft 385 kts 241°
2026-04-26 15:33 35.28203 -113.07024 37780 ft 385 kts 241°
2026-04-26 15:33 35.25955 -113.11761 37773 ft 385 kts 241°
2026-04-26 15:34 35.23277 -113.17385 37775 ft 384 kts 241°
2026-04-26 15:34 35.20578 -113.23047 37773 ft 384 kts 241°
2026-04-26 15:35 35.17891 -113.28682 37766 ft 384 kts 241°
2026-04-26 15:35 35.15197 -113.34325 37766 ft 384 kts 241°
2026-04-26 15:36 35.12506 -113.39950 37744 ft 384 kts 241°
2026-04-26 15:36 35.09808 -113.45581 37766 ft 382 kts 241°
2026-04-26 15:37 35.07126 -113.51165 37762 ft 381 kts 241°
2026-04-26 15:37 35.04448 -113.56740 37768 ft 381 kts 241°
2026-04-26 15:38 35.01770 -113.62301 37767 ft 381 kts 241°
2026-04-26 15:38 34.99073 -113.67872 37767 ft 380 kts 241°
2026-04-26 15:39 34.96389 -113.73414 37769 ft 380 kts 241°
2026-04-26 15:39 34.94147 -113.78049 37774 ft 380 kts 241°
2026-04-26 15:40 34.91024 -113.84498 37770 ft 381 kts 241°
2026-04-26 15:40 34.88329 -113.90055 37779 ft 381 kts 241°
2026-04-26 15:41 34.85594 -113.95627 37778 ft 382 kts 240°
2026-04-26 15:41 34.82783 -114.01099 37784 ft 383 kts 239°
2026-04-26 15:42 34.79927 -114.06574 37802 ft 383 kts 239°
2026-04-26 15:42 34.77087 -114.12042 37841 ft 382 kts 239°
2026-04-26 15:43 34.74262 -114.17488 37863 ft 380 kts 239°
2026-04-26 15:44 34.70048 -114.25625 37884 ft 377 kts 240°
2026-04-26 15:44 34.65873 -114.33665 37921 ft 376 kts 240°
2026-04-26 15:45 34.61289 -114.41381 37862 ft 377 kts 233°
2026-04-26 15:46 34.56097 -114.48550 37863 ft 377 kts 233°
2026-04-26 15:46 34.53218 -114.52514 37860 ft 376 kts 233°
2026-04-26 15:47 34.47453 -114.60473 37853 ft 376 kts 233°
2026-04-26 15:48 34.44021 -114.65205 37845 ft 376 kts 233°
2026-04-26 15:48 34.40569 -114.69958 37842 ft 376 kts 233°
2026-04-26 15:49 34.37109 -114.74708 37809 ft 376 kts 233°
2026-04-26 15:49 34.33640 -114.79450 37836 ft 375 kts 232°
2026-04-26 15:50 34.30179 -114.84178 37859 ft 375 kts 233°
2026-04-26 15:50 34.26720 -114.88906 37864 ft 375 kts 233°
2026-04-26 15:51 34.23266 -114.93622 37857 ft 374 kts 233°
2026-04-26 15:51 34.19811 -114.98329 37854 ft 374 kts 233°
2026-04-26 15:52 34.16381 -115.02995 37868 ft 374 kts 232°
2026-04-26 15:52 34.12928 -115.07682 37863 ft 374 kts 232°
2026-04-26 15:53 34.09468 -115.12375 37868 ft 374 kts 232°
2026-04-26 15:53 34.06005 -115.17059 37880 ft 374 kts 232°
2026-04-26 15:54 34.02541 -115.21742 37866 ft 374 kts 232°
2026-04-26 15:54 33.99084 -115.26415 37881 ft 372 kts 232°
2026-04-26 15:55 33.95650 -115.31062 37895 ft 371 kts 232°
2026-04-26 15:55 33.92233 -115.35704 37903 ft 370 kts 232°
2026-04-26 15:56 33.88833 -115.40306 37909 ft 369 kts 232°
2026-04-26 15:56 33.85417 -115.44921 37905 ft 369 kts 232°
2026-04-26 15:57 33.82006 -115.49524 37901 ft 368 kts 232°
2026-04-26 15:57 33.78595 -115.54124 37899 ft 369 kts 232°
2026-04-26 15:58 33.75177 -115.58718 37856 ft 369 kts 232°
2026-04-26 15:58 33.73465 -115.61017 37591 ft 368 kts 232°
2026-04-26 15:58 33.71761 -115.63309 37325 ft 367 kts 232°
2026-04-26 15:58 33.70064 -115.65593 37023 ft 364 kts 233°
2026-04-26 15:59 33.68379 -115.67841 36762 ft 361 kts 232°
2026-04-26 15:59 33.66693 -115.70070 36490 ft 360 kts 232°
2026-04-26 15:59 33.65001 -115.72298 35691 ft 363 kts 232°
2026-04-26 15:59 33.63292 -115.74546 34801 ft 366 kts 232°
2026-04-26 16:00 33.61650 -115.76870 34171 ft 360 kts 238°
2026-04-26 16:00 33.60243 -115.79307 32980 ft 354 kts 238°
2026-04-26 16:00 33.58869 -115.81695 31866 ft 349 kts 238°
2026-04-26 16:00 33.57507 -115.84058 30960 ft 340 kts 238°
2026-04-26 16:01 33.56176 -115.86359 30098 ft 334 kts 238°
2026-04-26 16:01 33.54841 -115.88668 29125 ft 339 kts 238°
2026-04-26 16:01 33.53478 -115.91029 28142 ft 348 kts 238°
2026-04-26 16:01 33.52089 -115.93432 27164 ft 353 kts 238°
2026-04-26 16:02 33.50675 -115.95880 26028 ft 362 kts 238°
2026-04-26 16:02 33.49201 -115.98432 24725 ft 383 kts 238°
2026-04-26 16:02 33.47660 -116.01097 24326 ft 394 kts 237°
2026-04-26 16:02 33.46617 -116.02895 24104 ft 399 kts 237°
2026-04-26 16:03 33.44492 -116.06548 23316 ft 399 kts 237°
2026-04-26 16:03 33.42906 -116.09266 22711 ft 398 kts 237°
2026-04-26 16:03 33.41324 -116.11977 22134 ft 396 kts 237°
2026-04-26 16:03 33.39755 -116.14674 21561 ft 394 kts 237°
2026-04-26 16:04 33.38195 -116.17356 20993 ft 392 kts 237°
2026-04-26 16:04 33.36640 -116.20032 20429 ft 390 kts 237°
2026-04-26 16:04 33.35072 -116.22618 19870 ft 389 kts 232°
2026-04-26 16:04 33.33150 -116.24896 19306 ft 391 kts 223°
2026-04-26 16:05 33.30881 -116.26690 18732 ft 392 kts 213°
2026-04-26 16:05 33.28428 -116.28127 18174 ft 392 kts 211°
2026-04-26 16:05 33.25978 -116.29553 17526 ft 390 kts 211°
2026-04-26 16:05 33.23549 -116.30970 16951 ft 387 kts 211°
2026-04-26 16:06 33.21135 -116.32381 16394 ft 385 kts 211°
2026-04-26 16:06 33.18737 -116.33786 15839 ft 383 kts 211°
2026-04-26 16:06 33.16349 -116.35184 15276 ft 381 kts 212°
2026-04-26 16:06 33.13972 -116.36575 14736 ft 378 kts 211°
2026-04-26 16:07 33.11651 -116.37925 14529 ft 363 kts 211°
2026-04-26 16:07 33.09454 -116.39195 14420 ft 336 kts 212°
2026-04-26 16:07 33.07417 -116.40368 14078 ft 316 kts 212°
2026-04-26 16:07 33.05466 -116.41503 13811 ft 309 kts 212°
2026-04-26 16:08 33.03538 -116.42639 13550 ft 309 kts 212°
2026-04-26 16:08 33.02264 -116.43391 13374 ft 308 kts 212°
2026-04-26 16:08 32.99849 -116.45116 13033 ft 298 kts 224°
2026-04-26 16:08 32.98286 -116.46711 12769 ft 295 kts 225°
2026-04-26 16:09 32.96720 -116.48306 12505 ft 296 kts 225°
2026-04-26 16:09 32.95158 -116.49885 12250 ft 293 kts 225°
2026-04-26 16:09 32.93604 -116.51446 11887 ft 291 kts 225°
2026-04-26 16:09 32.92057 -116.52999 11454 ft 291 kts 225°
2026-04-26 16:10 32.90516 -116.54550 11023 ft 290 kts 225°
2026-04-26 16:10 32.88975 -116.56100 10594 ft 289 kts 225°
2026-04-26 16:10 32.87448 -116.57636 10160 ft 283 kts 224°
2026-04-26 16:10 32.86002 -116.59087 9766 ft 271 kts 223°
2026-04-26 16:11 32.84578 -116.60519 9593 ft 266 kts 224°
2026-04-26 16:11 32.83166 -116.61939 9462 ft 265 kts 224°
2026-04-26 16:11 32.81762 -116.63352 9334 ft 264 kts 223°
2026-04-26 16:11 32.80359 -116.64766 9105 ft 264 kts 224°
2026-04-26 16:12 32.78964 -116.66172 8791 ft 262 kts 224°
2026-04-26 16:12 32.77626 -116.67638 8467 ft 259 kts 232°
2026-04-26 16:12 32.75760 -116.71249 7830 ft 257 kts 243°
2026-04-26 16:13 32.74892 -116.73084 7507 ft 254 kts 242°
2026-04-26 16:13 32.74027 -116.74908 7192 ft 252 kts 242°
2026-04-26 16:13 32.73168 -116.76716 6867 ft 250 kts 243°
2026-04-26 16:13 32.72322 -116.78491 6568 ft 245 kts 242°
2026-04-26 16:14 32.71486 -116.80244 6247 ft 244 kts 241°
2026-04-26 16:14 32.70680 -116.82019 5939 ft 244 kts 249°
2026-04-26 16:14 32.69546 -116.85665 5402 ft 230 kts 251°
2026-04-26 16:15 32.69007 -116.87388 5132 ft 216 kts 251°
2026-04-26 16:15 32.68503 -116.89044 4893 ft 211 kts 252°
2026-04-26 16:15 32.68022 -116.90657 4656 ft 205 kts 251°
2026-04-26 16:16 32.67337 -116.93940 4163 ft 203 kts 275°
2026-04-26 16:16 32.67646 -116.95559 3933 ft 200 kts 285°
2026-04-26 16:16 32.68033 -116.97119 3706 ft 195 kts 285°
2026-04-26 16:16 32.68411 -116.98657 3482 ft 193 kts 285°
2026-04-26 16:17 32.68783 -117.00176 3260 ft 190 kts 285°
2026-04-26 16:17 32.69148 -117.01671 3022 ft 188 kts 285°
2026-04-26 16:17 32.69511 -117.03156 2812 ft 186 kts 285°
2026-04-26 16:17 32.69862 -117.04597 2600 ft 175 kts 284°
2026-04-26 16:18 32.70183 -117.05911 2373 ft 162 kts 284°
2026-04-26 16:18 32.70762 -117.08287 1969 ft 137 kts 285°
2026-04-26 16:19 32.71268 -117.10367 1563 ft 129 kts 284°
2026-04-26 16:19 32.71518 -117.11396 1367 ft 131 kts 284°
2026-04-26 16:19 32.71947 -117.13162 1002 ft 134 kts 284°
2026-04-26 16:20 32.72292 -117.14582 732 ft 136 kts 285°
2026-04-26 16:20 32.72711 -117.16313 399 ft 127 kts 287°
2026-04-26 16:20 32.72956 -117.17327 182 ft 127 kts 286°
2026-04-26 16:21 32.73198 -117.18318 27 ft 123 kts 286°
2026-04-26 16:21 32.73379 -117.19059 22 ft 52 kts 286°
2026-04-26 16:21 32.73418 -117.19219 20 ft 10 kts 286°
2026-04-26 16:21 32.73440 -117.19311 22 ft 17 kts 286°
2026-04-26 16:22 32.73479 -117.19496 24 ft 12 kts 261°
2026-04-26 16:22 32.73425 -117.19517 24 ft 6 kts 191°
2026-04-26 16:22 32.73422 -117.19519 24 ft 0 kts 195°
2026-04-26 16:22 32.73417 -117.19521 24 ft 4 kts 199°
2026-04-26 16:23 32.73406 -117.19596 25 ft 12 kts 283°
2026-04-26 16:23 32.73393 -117.19695 22 ft 15 kts 206°
2026-04-26 16:23 32.73331 -117.19695 20 ft 7 kts 145°
2026-04-26 16:23 32.73318 -117.19682 20 ft 0 kts 140°